Tracking 28794 objects as of 19-Apr-2024
HD Live streaming from Space Station
objects crossing your sky now

ONEWEB-0293

Track ONEWEB-0293 now!
10-day predictions
ONEWEB-0293 is classified as:


NORAD ID: 49082
Int'l Code: 2021-075H
Perigee: 1,199.1 km
Apogee: 1,202.6 km
Inclination: 87.9 °
Period: 109.3 minutes
Semi major axis: 7571 km
RCS: Unknown
Launch date: August 21, 2021
Source: United Kingdom (UK)
Launch site: TYURATAM MISSILE AND SPACE COMPLEX (TTMTR)
Your satellite tracking list
Your tracking list is empty




NASA's NSSDC Master Catalog

Two Line Element Set (TLE):
1 49082U 21075H   24110.59063898  .00000031  00000-0  47091-4 0  9993
2 49082  87.9208 162.8171 0002334 101.5743 258.5650 13.17649204129783
Source of the keplerian elements: AFSPC